Weather History for KEFT - July, 2014

Change the Weather History Date:

Monday, July 14, 2014

  Actual Average Record
Temperature  
Mean Temperature 66 °F -  
Max Temperature 75 °F 84 °F 91 °F (2010)
Min Temperature 55 °F 67 °F 53 °F (2002)
Cooling Degree Days 1    
Growing Degree Days 16 (Base 50)    
Moisture  
Dew Point 50 °F    
Average Humidity 58    
Maximum Humidity 88    
Minimum Humidity 36    
Precipitation  
Precipitation 0.00 in - - ()
Sea Level Pressure  
Sea Level Pressure 29.88 in    
Wind  
Wind Speed 7 mph (West)    
Max Wind Speed 21 mph    
Max Gust Speed 26 mph    
Visibility 10 miles    
Events      
Averages and records for this station are not official NWS values.
T = Trace of Precipitation, MM = Missing Value Source: NWS Daily Summary

Daily Weather History Graph

Daily Weather History Graph

Search for Another Location

Airport or City:

Trip Planner

Search our weather history database for the weather conditions in past years. The results will help you decide how hot, cold, wet, or windy it might be!

Date:

Astronomy

Jul. 14, 2014 Rise Set
Actual Time 5:33 AM CDT 8:34 PM CDT
Civil Twilight 4:59 AM CDT 9:08 PM CDT
Nautical Twilight 4:16 AM CDT 9:51 PM CDT
Astronomical Twilight 3:24 AM CDT 10:42 PM CDT
Moon 9:59 PM CDT (7/14) 8:20 AM CDT (7/14)
Length of Visible Light 16h 09m
Length of Day
15h 01m
Waning Gibbous, 93% of the Moon is Illuminated
Jul 14
Waning Gibbous
Jul 18
Last Quarter
Jul 26
New
Aug 3
First Quarter
Aug 10
Full

Hourly Weather History & Observations

Time (CDT) Temp. Dew Point Humidity Pressure Visibility Wind Dir Wind Speed Gust Speed Precip Events Conditions
12:15 AM 68.0 °F 48.2 °F 49% 29.92 in 10.0 mi NW 3.5 mph - N/A   Mostly Cloudy
12:35 AM 64.4 °F 51.8 °F 64% 29.92 in 10.0 mi NW 3.5 mph - N/A   Mostly Cloudy
12:55 AM 64.4 °F 51.8 °F 64% 29.91 in 10.0 mi Calm Calm - N/A   Scattered Clouds
1:15 AM 64.4 °F 51.8 °F 64% 29.91 in 7.0 mi Calm Calm - N/A   Scattered Clouds
1:35 AM 62.6 °F 53.6 °F 72% 29.91 in 10.0 mi Calm Calm - N/A   Overcast
1:55 AM 64.4 °F 51.8 °F 64% 29.91 in 10.0 mi Calm Calm - N/A   Overcast
2:15 AM 64.4 °F 51.8 °F 64% 29.90 in 10.0 mi Calm Calm - N/A   Overcast
2:35 AM 64.4 °F 51.8 °F 64% 29.90 in 10.0 mi WSW 3.5 mph - N/A   Overcast
2:55 AM 64.4 °F 53.6 °F 68% 29.90 in 10.0 mi WSW 3.5 mph - N/A   Overcast
3:15 AM 64.4 °F 53.6 °F 68% 29.90 in 10.0 mi SW 4.6 mph - N/A   Overcast
3:35 AM 62.6 °F 53.6 °F 72% 29.89 in 10.0 mi SSW 4.6 mph - N/A   Mostly Cloudy
3:55 AM 62.6 °F 55.4 °F 77% 29.89 in 10.0 mi SSW 4.6 mph - N/A   Scattered Clouds
4:15 AM 60.8 °F 55.4 °F 82% 29.88 in 10.0 mi SSW 4.6 mph - N/A   Scattered Clouds
4:35 AM 64.4 °F 51.8 °F 64% 29.87 in 10.0 mi Calm Calm - N/A   Clear
4:55 AM 60.8 °F 53.6 °F 77% 29.87 in 10.0 mi SW 4.6 mph - N/A   Clear
5:15 AM 59.0 °F 55.4 °F 88% 29.88 in 10.0 mi SSW 6.9 mph - N/A   Mostly Cloudy
5:35 AM 60.8 °F 53.6 °F 77% 29.88 in 10.0 mi SSW 6.9 mph - N/A   Overcast
5:55 AM 62.6 °F 55.4 °F 77% 29.88 in 10.0 mi SSW 6.9 mph - N/A   Overcast
6:15 AM 62.6 °F 55.4 °F 77% 29.88 in 10.0 mi SSW 5.8 mph - N/A   Overcast
6:35 AM 62.6 °F 55.4 °F 77% 29.88 in 10.0 mi SSW 5.8 mph - N/A   Overcast
6:55 AM 62.6 °F 55.4 °F 77% 29.88 in 10.0 mi WNW 5.8 mph - N/A   Overcast
7:15 AM 62.6 °F 55.4 °F 77% 29.88 in 10.0 mi West 5.8 mph - N/A   Mostly Cloudy
7:30 AM 64.4 °F 57.2 °F 77% 29.88 in 10.0 mi SW 4.6 mph - N/A   Mostly Cloudy
7:55 AM 66.2 °F 55.4 °F 68% 29.88 in 10.0 mi SW 4.6 mph - N/A   Scattered Clouds
8:15 AM 68.0 °F 55.4 °F 64% 29.88 in 10.0 mi SW 8.1 mph - N/A   Scattered Clouds
8:35 AM 68.0 °F 55.4 °F 64% 29.88 in 10.0 mi WSW 5.8 mph - N/A   Scattered Clouds
8:55 AM 69.8 °F 55.4 °F 60% 29.88 in 10.0 mi WSW 8.1 mph - N/A   Scattered Clouds
9:15 AM 69.8 °F 53.6 °F 56% 29.89 in 10.0 mi West 10.4 mph - N/A   Scattered Clouds
9:35 AM 71.6 °F 51.8 °F 50% 29.88 in 10.0 mi West 8.1 mph - N/A   Mostly Cloudy
9:55 AM 73.4 °F 48.2 °F 41% 29.88 in 10.0 mi NW 9.2 mph - N/A   Scattered Clouds
10:15 AM 73.4 °F 46.4 °F 38% 29.88 in 10.0 mi West 11.5 mph - N/A   Clear
10:35 AM 73.4 °F 46.4 °F 38% 29.88 in 10.0 mi West 9.2 mph - N/A   Clear
10:55 AM 73.4 °F 46.4 °F 38% 29.88 in 10.0 mi West 8.1 mph - N/A   Clear
11:15 AM 73.4 °F 48.2 °F 41% 29.88 in 10.0 mi WNW 11.5 mph 17.3 mph N/A   Clear
11:35 AM 73.4 °F 48.2 °F 41% 29.87 in 10.0 mi WNW 13.8 mph 20.7 mph N/A   Clear
11:55 AM 73.4 °F 46.4 °F 38% 29.87 in 10.0 mi West 12.7 mph 20.7 mph N/A   Scattered Clouds
12:15 PM 73.4 °F 44.6 °F 36% 29.86 in 10.0 mi West 11.5 mph 23.0 mph N/A   Scattered Clouds
12:35 PM 75.2 °F 46.4 °F 36% 29.86 in 10.0 mi NW 11.5 mph 19.6 mph N/A   Scattered Clouds
12:55 PM 73.4 °F 44.6 °F 36% 29.85 in 10.0 mi West 13.8 mph 24.2 mph N/A   Scattered Clouds
1:15 PM 73.4 °F 48.2 °F 41% 29.85 in 7.0 mi West 11.5 mph 19.6 mph N/A   Mostly Cloudy
1:35 PM 73.4 °F 48.2 °F 41% 29.85 in 10.0 mi West 17.3 mph 21.9 mph N/A   Scattered Clouds
1:55 PM 73.4 °F 48.2 °F 41% 29.85 in 10.0 mi WNW 15.0 mph 21.9 mph N/A   Mostly Cloudy
2:15 PM 71.6 °F 50.0 °F 46% 29.85 in 10.0 mi WNW 17.3 mph 24.2 mph N/A   Overcast
2:35 PM 71.6 °F 50.0 °F 46% 29.85 in 10.0 mi NW 13.8 mph 20.7 mph N/A   Mostly Cloudy
2:55 PM 69.8 °F 51.8 °F 53% 29.86 in 10.0 mi NW 17.3 mph 25.3 mph N/A   Overcast
3:15 PM 71.6 °F 51.8 °F 50% 29.86 in 10.0 mi WNW 18.4 mph 26.5 mph N/A   Mostly Cloudy
3:35 PM 71.6 °F 48.2 °F 43% 29.85 in 10.0 mi West 16.1 mph 23.0 mph N/A   Scattered Clouds
3:55 PM 71.6 °F 46.4 °F 41% 29.85 in 10.0 mi WNW 17.3 mph 23.0 mph N/A   Scattered Clouds
4:15 PM 71.6 °F 48.2 °F 43% 29.85 in 10.0 mi West 16.1 mph 24.2 mph N/A   Scattered Clouds
4:35 PM 71.6 °F 46.4 °F 41% 29.85 in 10.0 mi WNW 18.4 mph 26.5 mph N/A   Scattered Clouds
4:55 PM 71.6 °F 46.4 °F 41% 29.85 in 10.0 mi WNW 20.7 mph 26.5 mph N/A   Clear
5:35 PM 69.8 °F 48.2 °F 46% 29.85 in 10.0 mi NW 13.8 mph 19.6 mph N/A   Scattered Clouds
5:55 PM 69.8 °F 48.2 °F 46% 29.85 in 10.0 mi NW 15.0 mph 24.2 mph N/A   Scattered Clouds
6:15 PM 69.8 °F 46.4 °F 43% 29.86 in 10.0 mi WNW 11.5 mph 21.9 mph N/A   Scattered Clouds
6:35 PM 68.0 °F 48.2 °F 49% 29.86 in 10.0 mi WNW 12.7 mph 18.4 mph N/A   Scattered Clouds
6:55 PM 66.2 °F 48.2 °F 52% 29.87 in 10.0 mi WNW 13.8 mph 19.6 mph N/A   Mostly Cloudy
7:15 PM 64.4 °F 48.2 °F 56% 29.87 in 10.0 mi WNW 10.4 mph - N/A   Overcast
7:35 PM 66.2 °F 48.2 °F 52% 29.88 in 10.0 mi WNW 10.4 mph - N/A   Overcast
7:55 PM 64.4 °F 46.4 °F 52% 29.89 in 10.0 mi NW 16.1 mph 20.7 mph N/A   Overcast
8:15 PM 64.4 °F 46.4 °F 52% 29.89 in 10.0 mi NW 11.5 mph 17.3 mph N/A   Overcast
8:55 PM 60.8 °F 48.2 °F 63% 29.90 in 7.0 mi NW 6.9 mph - N/A   Mostly Cloudy
9:35 PM 59.0 °F 46.4 °F 63% 29.90 in 10.0 mi NW 10.4 mph - N/A   Clear
9:55 PM 59.0 °F 46.4 °F 63% 29.91 in 10.0 mi West 6.9 mph - N/A   Scattered Clouds
10:15 PM 59.0 °F 46.4 °F 63% 29.90 in 10.0 mi WNW 8.1 mph - N/A   Mostly Cloudy
10:35 PM 59.0 °F 48.2 °F 67% 29.90 in 10.0 mi West 6.9 mph - N/A   Overcast
10:55 PM 57.2 °F 48.2 °F 72% 29.90 in 10.0 mi West 8.1 mph - N/A   Overcast
11:15 PM 57.2 °F 48.2 °F 72% 29.90 in 10.0 mi West 10.4 mph - N/A   Overcast
11:35 PM 57.2 °F 48.2 °F 72% 29.89 in 10.0 mi West 11.5 mph - N/A   Overcast
11:55 PM 55.4 °F 48.2 °F 77% 29.90 in 10.0 mi West 12.7 mph - N/A   Scattered Clouds